Content
SEND FEEDBACK

Daily
Averages
Monthly
Summary
United States of America

EL PASO, TEXAS


Home > North America > United States > Texas
Elevation: 3918 feet     Latitude: 31 48N     Longitude: 106 24W

WEATHER
 
SELECT A DAY
Number of Records: 172,259;   Date Range: 1/1/95 - 9/21/14
 
SHARE

PRINT THIS DATA

[ ← Previous Day ]
WEATHER ALMANAC - MAY 25, 2013
[ Next Day → ]
[ °C ]   °F
Weather ElementAverageHighLow
Temperature83.9 °F96.1 °F (3:51 pm)71.1 °F (4:51 am)
Dewpoint35.8 °F54 °F (1:51 am)14 °F (8:51 pm)
Humidity25.4 %51 % (4:51 am)6 % (4:51 pm)
Barometer29.77 in29.85 in (8:51 am)29.67 in (6:51 pm)
Wind Speed8.3 mph15 mph (5:51 pm)
Wind Gust21.9 mph (3:51 pm)
Weather ElementAverage
Visibility10 mi
Wind DirectionSSE (171.3 °)

Weather ElementTotal
Precipitation---
Cooling Degree Days18.6 (Base 65)
Growing Degree Days33.6 (Base 50)
Averaged from 23 records on May 25, 2013
WEATHER CONDITIONS BREAKOUT
WIND DIRECTION BREAKOUT
WEATHER BY HOUR - MAY 25, 2013
[ °C ]   °F
Local TimeTemperatureDewpointHumidityBarometerVisibilityWind DirectionWind SpeedGust SpeedPrecipitationEventsConditions
1:51 AM75.0 °F54.0 °F48 %29.81 in10.0 miESE (110°)5.8 mphScattered Clouds
2:51 AM73.9 °F53.1 °F48 %29.80 in10.0 miEast (100°)9.2 mphScattered Clouds
3:51 AM72.0 °F52.0 °F49 %29.81 in10.0 miNE (50°)8.1 mphScattered Clouds
4:51 AM71.1 °F52.0 °F51 %29.81 in10.0 miNNE (20°)5.8 mphMostly Cloudy
5:51 AM71.1 °F52.0 °F51 %29.81 in10.0 miNNW (330°)3.5 mphScattered Clouds
6:51 AM71.1 °F52.0 °F51 %29.83 in10.0 miCalmScattered Clouds
7:51 AM73.0 °F53.1 °F49 %29.84 in10.0 miCalmScattered Clouds
8:51 AM75.9 °F53.1 °F45 %29.85 in10.0 miSSE (160°)8.1 mphPartly Cloudy
9:51 AM79.0 °F53.1 °F40 %29.84 in10.0 miVariable5.8 mphClear
10:51 AM84.0 °F50.0 °F31 %29.83 in10.0 miVariable4.6 mphPartly Cloudy
11:51 AM87.1 °F45.0 °F23 %29.82 in10.0 miSW (220°)5.8 mphPartly Cloudy
12:51 PM91.9 °F34.0 °F13 %29.79 in10.0 miSSW (210°)12.7 mph20.7 mphScattered Clouds
1:51 PM93.0 °F27.0 °F9 %29.77 in10.0 miWest (260°)10.4 mphScattered Clouds
2:51 PM95.0 °F21.9 °F7 %29.74 in10.0 miWest (260°)13.8 mph17.3 mphScattered Clouds
3:51 PM96.1 °F21.9 °F7 %29.72 in10.0 miWest (260°)12.7 mph21.9 mphPartly Cloudy
4:51 PM96.1 °F19.0 °F6 %29.70 in10.0 miWest (280°)13.8 mphPartly Cloudy
5:51 PM95.0 °F17.1 °F6 %29.68 in10.0 miWest (260°)15.0 mph21.9 mphPartly Cloudy
6:51 PM93.9 °F19.0 °F7 %29.67 in10.0 miWNW (290°)11.5 mphScattered Clouds
7:51 PM91.9 °F16.0 °F6 %29.68 in10.0 miWest (260°)10.4 mphScattered Clouds
8:51 PM90.0 °F14.0 °F6 %29.69 in10.0 miWest (260°)6.9 mphPartly Cloudy
9:51 PM84.9 °F14.0 °F7 %29.72 in10.0 miSW (220°)6.9 mphClear
10:51 PM89.1 °F19.9 °F8 %29.73 in10.0 miWest (280°)11.5 mph20.7 mphClear
11:51 PM80.1 °F30.0 °F16 %29.75 in10.0 miESE (110°)9.2 mphClear
Hourly data recorded from KELP, located miles away from El Paso, Texas







STORIES FROM OUR PARTNERS